Weather Roundup
Issued by NWS

Home | Current Version | Previous Version | Text Only | Print | Product List | Glossary On
Versions: 1 2 3 4 5 6 7 8 9 10 11 12 13 14 15 16 17 18 19 20 21 22 23 24 25 26 27 28 29 30 31 32 33 34 35 36 37 38 39 40 41 42 43 44 45 46 47 48 49 50
630
NZUS93 KARX 210210
HRRWXR

CURRENT HOURLY OBSERVATIONS ACROSS
MUCH OF THE UPPER MISSISSIPPI VALLEY
NATIONAL WEATHER SERVICE LA CROSSE WI
800 PM CST FRI JAN 20 2017


...SOUTHEAST MINNESOTA...


CITY           SKY/WX    TMP DP  RH WIND       PRES   REMARKS
ROCHESTER      FOG       33  33 100 SE9       29.56F VSB 1/4 WCI  25
ROCHESTER/MAYO CLOUDY    35  35 100 SE7       29.58S VSB 1/2 WCI  29
WINONA         CLOUDY    36  34  93 SE6       29.61S FOG     WCI  31
AUSTIN         FOG       34  32  93 E6        29.55F VSB 3/4 WCI  29
ALBERT LEA     FOG       34  34 100 SE7       29.54F VSB 1/2 WCI  28
DODGE CENTER   FOG       34  34 100 CALM      29.56S VSB 1/4
PRESTON        FOG       33  33  97 SE3       29.58F VSB 1/2
OWATONNA       CLOUDY    36  34  93 SE9       29.56S FOG     WCI  29
FARIBAULT      CLOUDY    36  36 100 SE9       29.57R FOG     WCI  29
$$

...ELSEWHERE IN MINNESOTA...


CITY           SKY/WX    TMP DP  RH WIND       PRES   REMARKS
MINNEAPOLIS    CLOUDY    35  34  96 SE9       29.57R FOG     WCI  28
INTNL FALLS    LGT RAIN  35  34  96 SE7       29.56F WCI  29
DULUTH         DRZL/FOG  34  34 100 E9        29.57F VSB 1/8 WCI  27
RED WING       FOG       36  34  93 SE7       29.58R VSB 1/2 WCI  30
REDWOOD FALLS  CLOUDY    35  33  92 SE12      29.51S FOG     WCI  27
MANKATO        CLOUDY    34  34 100 SE12      29.54F FOG     WCI  25
WORTHINGTON    FOG       35  35 100 SE8       29.47F VSB 1/2 WCI  29
FAIRMONT       FOG       34  34 100 SE7       29.52F VSB 1/2 WCI  28
$$

...SOUTHWEST WISCONSIN...


CITY           SKY/WX    TMP DP  RH WIND       PRES   REMARKS
LA CROSSE      CLOUDY    39  36  89 SE6       29.61R WCI  35
PRAIRIE DU CHI CLOUDY    37  36  96 E6        29.59F FOG     WCI  32
BOSCOBEL       FOG       37  36  96 NE5       29.62F VSB 1/2 WCI  33
LONE ROCK      MIX PCPN  36  35  96 E7        29.63S VSB 1/4 WCI  30
PLATTEVILLE    CLOUDY    36  36 100 E7        29.60F VSB 1/4 WCI  30
FORT MC COY    CLOUDY    34  34 100 CALM      29.62S
CAMP DOUGLAS   CLOUDY    36  34  93 SE6       29.62S FOG     WCI  31
MAUSTON-NEW LI FOG       35  35  99 SE6       29.61F VSB 1   WCI  30
VIROQUA        CLOUDY    34  34 100 SE8       29.59S VSB 1/4 WCI  28
WIS DELLS      CLOUDY    35  35  99 SE5       29.62S FOG     WCI  31
$$

...ELSEWHERE IN WISCONSIN...


CITY           SKY/WX    TMP DP  RH WIND       PRES   REMARKS
MILWAUKEE      FOG       37  35  92 SE6       29.67S VSB 1/4 WCI  32
MADISON        FOG       36  36 100 SE5       29.64S VSB 1/2 WCI  32
GREEN BAY      CLOUDY    35  34  96 NE5       29.67F FOG     WCI  31
EAU CLAIRE     CLOUDY    35  34  96 SE8       29.59S FOG     WCI  29
BLACK RVR FLS  CLOUDY    36  36 100 CALM      29.61S FOG
MEDFORD        CLOUDY    33  32  99 SE6       29.60F FOG     WCI  27
WAUSAU         CLOUDY    33  33 100 SE7       29.62S WCI  27
WIS RAPIDS     CLOUDY    35  35 100 SE6       29.64S FOG     WCI  30
MARSHFIELD     FOG       33  32  96 SE8       29.60S VSB 1   WCI  26
RICE LAKE      FOG       34  34  99 SE8       29.60S VSB 3/4 WCI  28
$$

...NORTHEAST IOWA...


CITY           SKY/WX    TMP DP  RH WIND       PRES   REMARKS
WATERLOO       FOG       37  37 100 SE9       29.55F VSB 1/4 WCI  30
DUBUQUE        FOG       37  37 100 E6        29.58F VSB 1/4 WCI  32
DECORAH        FOG       36  36 100 CALM      29.57F VSB<1/4
MASON CITY     FOG       34  34 100 E8        29.55F VSB 1/4 WCI  27
CHARLES CITY   MIX PCPN  34  34 100 E8        29.56F VSB<1/4 WCI  27
OELWEIN        FOG       36  36 100 SE12      29.56F VSB<1/4 WCI  27
$$

...ELSEWHERE IN IOWA...


CITY           SKY/WX    TMP DP  RH WIND       PRES   REMARKS
DES MOINES     LGT RAIN  41  40  96 E8        29.51S VSB 1/2
IOWA CITY      FOG       42  41  96 E5        29.58S VSB 3/4
FORT DODGE     CLOUDY    36  34  93 SE5       29.51S VSB 1/2 WCI  32
MARSHALLTOWN   FOG       37  37 100 E9        29.52F VSB 1/4 WCI  30
CEDAR RAPIDS   FOG       38  38 100 E6        29.56S VSB 1/4 WCI  33
$$

...NORTHERN ILLINOIS...


CITY           SKY/WX    TMP DP  RH WIND       PRES   REMARKS
CHICAGO-OHARE  DRZL/FOG  41  41 100 SE6       29.65S VSB 1/4
CHICAGO-MIDWAY CLOUDY    42  41  96 E5        29.65F FOG
MOLINE         FOG       43  42  97 E5        29.57S VSB 1/4
ROCKFORD       FOG       40  39  97 E6        29.64F VSB 1/4
PEORIA         CLOUDY    48  48 100 SE6       29.60F FOG
$$

NOTE: "FAIR" INDICATES FEW OR NO CLOUDS BELOW 12,000 FEET WITH NO
SIGNIFICANT WEATHER AND/OR OBSTRUCTIONS TO VISIBILITY. WIND
SPEEDS ARE IN MILES-PER-HOUR.




USA.gov is the U.S. government's official web portal to all federal, state and local government web resources and services.